Retour au catalogue

SOAP

ActifScienceSSO
NORAD 63263·PAYLOAD·🇫🇷 France

Lancé Mar 15, 2025 depuis Vandenberg Space Force Base

Loading…

Prochains Passages (prochaines 24 heures)

TLE

FraisSource: Space-Track

Époque: Sep 14, 2026, 15:51 UTC

1 63263U 25052BF  26257.66086608  .00002197  00000-0  19505-3 0  9998
2 63263  97.6725 148.3917 0003718  59.5508 300.6081 14.97172285 82073

Suivez SOAP en temps réel avec AllMySat

Download on the App Store